{"data":{"norad_id":58548,"epoch":"2026-05-25T01:50:35.756736Z","epoch_age_seconds":61616,"freshness":"FRESH","line1":"1 58548U 23192T   26145.07680274 -.00001542  00000+0 -39960-4 0  9993","line2":"2 58548  53.1600  67.6685 0001154  85.5142 274.5990 15.30180246137682","mean_motion":15.30180246,"eccentricity":0.0001154,"inclination_deg":53.16,"raan_deg":67.6685,"arg_perigee_deg":85.5142,"mean_anomaly_deg":274.599,"bstar":-3.996e-5,"rev_number":13768,"period_min":94.106560567898,"perigee_km":474.48316830177,"apogee_km":476.06493557256,"semimajor_km":6853.4110519372,"source":"CELESTRAK","updated_at":"2026-05-25T13:38:18.663936Z"}}